This demonstration page uses our WeatherBlox Daily Observations layout. Learn more.

Left ArrowRight Arrow

34.74481, -87.66753

Hourly Observations for March 29, 2022

Temp ( °F °C ) Dew Point ( °F °C ) Humidity (%) Winds ( mph kmh ) Pressure ( in mb ) Visibility ( mi km ) Precip ( " mm )
12:53 am 00:53 Clear 48 8.9 31 -0.6 52 52 E 5 7 30.09 1019 10 16 0.00 0.00
1:53 am 01:53 Partly Cloudy 48 8.9 31 -0.6 52 52 E 3 6 30.08 1019 10 16 0.00 0.00
2:53 am 02:53 Mostly Cloudy 48 8.9 34 1.1 58 58 E 5 7 30.07 1018 10 16 0.00 0.00
3:53 am 03:53 Partly Cloudy 48 8.9 34 1.1 58 58 ENE 3 6 30.06 1018 10 16 0.00 0.00
4:53 am 04:53 Mostly Cloudy 47 8.3 35 1.7 63 63 E 3 6 30.07 1018 10 16 0.00 0.00
5:53 am 05:53 Partly Cloudy 46 7.8 34 1.1 63 63 ESE 6 9 30.07 1018 10 16 0.00 0.00
6:53 am 06:53 Mostly Sunny 47 8.3 35 1.7 63 63 E 3 6 30.10 1019 10 16 0.00 0.00
7:53 am 07:53 Mostly Cloudy 50 10 37 2.8 61 61 ESE 5 7 30.11 1020 10 16 0.00 0.00
8:53 am 08:53 Mostly Cloudy 55 12.8 37 2.8 51 51 ESE 8 13 30.11 1020 10 16 0.00 0.00
9:53 am 09:53 Cloudy 61 16.1 42 5.6 50 50 SSE 7 11 30.11 1020 10 16 0.00 0.00
10:44 am 10:44 Cloudy 66 18.9 47 8.3 50 50 S 7 11 30.10 1019 10 16 0.00 0.00
10:53 am 10:53 Cloudy 67 19.4 49 9.4 53 53 S 8 13 30.09 1019 10 16 0.00 0.00
11:30 am 11:30 Partly Cloudy 70 21.1 53 11.7 55 55 SSW 9 15 30.08 1018 10 16 0.00 0.00
11:53 am 11:53 Sunny 71 21.7 54 12.2 55 55 S 10 17 30.06 1018 10 16 0.00 0.00
12:53 pm 12:53 Mostly Cloudy 73 22.8 57 13.9 57 57 SSW 9 15 30.04 1017 10 16 0.00 0.00
1:53 pm 13:53 Mostly Sunny 75 23.9 58 14.4 55 55 SSW 15 24 30.01 1016 10 16 0.00 0.00
2:53 pm 14:53 Partly Cloudy 76 24.4 57 13.9 52 52 SSW 12 19 29.96 1015 10 16 0.00 0.00
3:53 pm 15:53 Partly Cloudy 77 25 57 13.9 50 50 SSE 16 26 29.93 1014 10 16 0.00 0.00
4:53 pm 16:53 Mostly Sunny 75 23.9 56 13.3 52 52 S 14 22 29.93 1014 9 14 0.00 0.00
5:53 pm 17:53 Mostly Sunny 74 23.3 57 13.9 56 56 SSE 10 17 29.92 1013 10 16 0.00 0.00
6:53 pm 18:53 Mostly Cloudy 71 21.7 57 13.9 61 61 SE 10 17 29.91 1013 10 16 0.00 0.00
7:53 pm 19:53 Clear 70 21.1 57 13.9 64 64 SE 8 13 29.90 1013 10 16 0.00 0.00
8:53 pm 20:53 Clear 68 20 57 13.9 68 68 SE 8 13 29.90 1013 10 16 0.00 0.00
9:53 pm 21:53 Clear 67 19.4 56 13.3 68 68 SE 6 9 29.88 1012 10 16 0.00 0.00
10:53 pm 22:53 Clear 69 20.6 55 12.8 61 61 SSE 12 19 29.86 1011 10 16 0.00 0.00
11:53 pm 23:53 Clear 71 21.7 55 12.8 57 57 S 15 24 29.86 1011 10 16 0.00 0.00

Powered by AerisWeather